Location: Harmony
(28.2000°N, 81.1500°W)
Time: 13:33:02
(UTC-04:00)

Daily predictions for brighter satellites

Satellite Brightness Start Highest point End
(mag) Time Altitude Azimuth Time Altitude Azimuth Time Altitude Azimuth
Atlas 2A Centaur Rocket 3.7 20:05:17 10° SW 20:09:27 54° SSE 20:28:56 10° E
FUSE 4.1 20:36:18 10° WSW 20:41:32 61° S 20:46:46 10° E
Timation 2 Rocket 3.9 20:37:10 10° S 20:42:57 56° ESE 20:48:48 10° NNE
Cosmos 1656 4.5 20:37:40 10° NNW 20:43:05 53° WSW 20:48:24 10° S
Thor Agena Rocket 3.8 20:38:01 10° NNE 20:43:07 51° E 20:48:07 10° S
Cosmos 2278 4.3 20:37:32 10° NNW 20:43:07 61° WSW 20:48:42 10° S
Gblst 52 Del rocket 4.3 20:38:17 10° NW 20:43:49 72° SW 20:49:18 10° SE
Cosmos 44 Rocket 3.6 20:38:41 10° NNW 20:43:55 83° WSW 20:49:05 10° SSE
Cosmos 2016 Rocket 4.0 20:43:43 10° S 20:49:48 88° W 20:55:57 10° N
GPS 2-05 Rocket1 2.7 20:46:46 10° SW 20:49:59 57° SSE 20:53:15 10° ENE
Cosmos 468 Rocket 4.1 20:44:54 10° S 20:50:03 56° ESE 20:55:11 10° NNE
Cosmos 2061 Rocket 4.4 20:44:55 10° SSW 20:51:17 71° W 20:57:37 10° N
Cosmos 1763 Rocket 4.1 20:49:48 10° SSE 20:54:36 36° E 20:59:24 10° NE
Cosmos 304 Rocket 4.2 20:49:58 10° SSW 20:54:45 67° WNW 20:59:33 10° N
Cosmos 2360 4.3 20:53:20 10° NNW 20:59:01 68° ENE 21:04:41 10° SSE
Cosmos 841 Rocket 4.4 20:56:50 10° SSE 21:01:10 27° E 21:05:31 10° NE
Okean 3 4.1 20:57:38 10° SSW 21:01:53 61° W 21:06:07 10° N
Cosmos 1725 Rocket 4.0 20:56:59 10° S 21:03:09 86° E 21:09:21 10° N
Cosmos 1697 Rocket 3.4 20:58:25 10° NNW 21:03:56 56° WSW 21:09:25 10° S
deb Kosmos-1763 4.0 21:01:12 10° SSW 21:04:53 80° ESE 21:08:35 10° NNE
DELTA 2 R/B (1) 4.3 21:00:52 10° SSW 21:05:39 30° SE 21:10:27 10° E
Cosmos 1378 Rocket 3.5 21:01:31 10° S 21:05:50 88° E 21:10:09 10° N
Cosmos 1500 3.3 21:03:45 10° N 21:07:37 82° W 21:11:28 10° S
GPS 2-12 Rocket1 4.4 21:04:16 10° WSW 21:08:07 26° S 21:10:52 15° SE
BREEZE-M DEB (TANK) 3.8 21:09:23 10° N 21:10:16 11° NNE 21:11:04 10° NE
Cosmos 1975 Rocket 3.5 21:07:00 10° SSE 21:11:03 40° E 21:15:06 10° NNE
Delta 7925 Rocket 3.2 21:07:24 10° W 21:12:18 71° S 21:15:49 17° E
ERS-2 2.5 21:09:38 16° SE 21:12:19 45° ENE 21:15:51 10° N
Atlas Centaur 2 1.2 21:09:20 10° WNW 21:13:32 78° N 21:16:08 18° E
SJ-6B 3.4 21:10:09 10° S 21:13:47 52° W 21:17:25 10° NNW
Tsikada Rocket 4.1 21:07:52 10° N 21:14:12 61° E 21:20:30 10° SSE
USA 186 1.7 21:11:57 12° SSE 21:14:52 88° ENE 21:18:11 10° N
Meteor 1-19 Rocket 4.5 21:11:08 10° SSE 21:16:50 53° E 21:22:34 10° NNE
USA 234 3.3 21:10:56 10° NE 21:17:31 89° NW 21:24:05 10° SW
NOSS 3-2 (C) 4.4 21:12:16 10° SW 21:17:50 49° WNW 21:23:52 10° NNE
Cosmos 1980 Rocket 2.3 21:12:31 10° NNW 21:18:11 80° WSW 21:23:47 10° SSE
IUS-9 SRM-1 3.4 21:15:13 10° W 21:18:37 75° S 21:33:54 10° E
Okean 1 Rocket 2.9 21:15:54 10° N 21:20:14 71° E 21:23:55 14° SSE
Cosmos 1975 3.1 21:17:58 10° N 21:21:51 46° E 21:24:04 22° SE
Cosmos 1666 3.3 21:18:32 10° NNE 21:22:09 37° E 21:23:46 25° SE
Cosmos 292 Rocket 4.1 21:21:06 10° S 21:25:36 43° ESE 21:30:06 10° NNE
ATLAS CENTAUR R/B 4.2 21:22:37 10° WSW 21:27:26 57° NW 21:41:16 10° NNE
GPS 2-04 Rocket1 2.9 21:25:07 10° WNW 21:29:16 70° SSW 21:31:18 29° SE
SAR-Lupe-3 4.4 21:26:10 10° NNE 21:29:44 72° E 21:32:52 13° S
CENTAUR R/B 2.3 21:28:15 10° SSW 21:33:54 89° ESE 21:40:20 10° NNE
Iridium 2 3.9 21:33:22 31° SE 21:34:46 47° E 21:38:27 10° NNE
Cosmos 1743 2.7 21:33:43 10° N 21:37:28 56° E 21:38:42 37° SE
ATLAS CENTAUR R/B 3.0 21:35:22 10° NW 21:39:40 36° WSW 21:43:31 13° S
Cosmos 2233 Rocket 4.1 21:34:33 10° S 21:40:40 75° W 21:46:51 10° N
Cosmos 1814 Rocket 4.1 21:35:50 10° SSW 21:41:02 80° WNW 21:46:21 10° NNE
Cosmos 1898 Rocket 3.6 21:39:30 10° N 21:44:47 64° ENE 21:47:11 32° SE
Meteor 1-12 Rocket 4.3 21:39:49 10° N 21:45:48 76° E 21:49:38 24° SSE
Resurs 01 Rocket 2.0 21:44:55 19° S 21:47:58 62° W 21:52:20 10° NNW
Cosmos 1833 4.1 21:42:25 10° SSW 21:48:09 74° ESE 21:53:51 10° NNE
H-2A R/B 3.0 21:48:25 25° E 21:49:08 26° ENE 21:53:15 10° NNE
Meteor 2-4 Rocket 3.5 21:46:17 17° S 21:50:27 73° E 21:55:57 10° NNE
Gbstr 26 Del rocket 4.5 21:48:09 10° NW 21:56:19 80° NE 22:00:20 33° SE
Cosmos 990 Rocket 4.1 21:52:16 10° N 21:57:26 58° ENE 21:58:52 43° SE
ARGOS 3.5 21:56:26 37° ESE 21:57:50 45° ENE 22:02:57 10° N
NOAA 11 4.4 21:58:22 24° S 22:01:45 69° WSW 22:07:11 10° NNW
Skynet4D Del rocket 3.8 22:02:01 10° WSW 22:08:24 59° SSE 22:09:45 47° ESE
Cosmos 2322 Rocket 2.1 22:04:50 10° NNW 22:10:27 84° ENE 22:12:02 49° SSE
Cosmos 1242 Rocket 3.5 22:11:12 10° NNW 22:14:37 41° W 22:15:05 39° WSW
DMSP B5D2-2 4.4 22:11:29 10° NNE 22:16:12 47° E 22:16:12 47° E
Cosmos 1340 Rocket 3.4 22:18:28 42° SW 22:19:27 54° W 22:23:25 10° N
SL-16 R/B 2.3 22:14:58 10° NNW 22:20:37 73° WSW 22:22:11 48° S
MetOp-B 4.0 22:23:56 64° ESE 22:24:31 71° ENE 22:29:51 10° N
Cosmos 540 Rocket 3.6 22:22:41 31° SSW 22:25:11 72° WNW 22:30:22 10° N
Cosmos 2150 Rocket 3.8 22:20:11 10° NNW 22:25:31 76° ENE 22:25:55 71° ESE
Cosmos 1513 Rocket 4.3 22:23:27 40° S 22:25:48 89° W 22:31:59 10° N
Mugunghwa Rocket 4.2 22:20:17 10° W 22:27:31 81° S 22:30:25 43° E
FUSE 4.2 22:22:32 10° W 22:27:15 52° SSW 22:27:15 52° SSW
Cosmos 2034 Rocket 3.8 22:29:19 56° SSE 22:30:41 79° E 22:36:50 10° N
Cosmos 2219 4.2 22:34:42 33° ENE 22:34:42 33° ENE 22:38:11 10° NE
Cosmos 1464 Rocket 4.2 22:30:00 28° SSW 22:33:28 68° W 22:39:49 10° N
SPOT 5 4.1 22:37:55 28° NE 22:37:55 28° NE 22:40:36 10° N
Terra 3.9 22:38:20 16° NE 22:38:20 16° NE 22:39:57 10° NNE
Cosmos 1937 Rocket 4.1 22:35:57 10° NNW 22:40:52 47° WSW 22:41:33 44° SW
Cosmos 1455 Rocket 3.8 22:40:26 10° NNW 22:44:20 50° WNW 22:44:20 50° WNW
Cosmos 2298 Rocket 4.4 22:41:32 10° NNW 22:46:42 56° WSW 22:46:59 55° WSW
DELTA 2 R/B (1) 3.8 22:46:21 10° WSW 22:51:52 65° NNW 22:53:20 46° NNE
Meteor 1-15 Rocket 4.2 22:47:20 10° N 22:52:34 74° NNE 22:52:34 74° NNE
Cosmos 2360 Rocket 2.3 22:53:52 10° NNW 22:58:58 74° NNW 22:58:58 74° NNW
BREEZE M DEB (TANK) 4.0 22:54:32 10° NW 22:58:38 33° NNW 22:58:38 33° NNW
Atlas Centaur 2 4.1 22:58:39 10° W 22:58:46 11° W 22:58:46 11° W
Cosmos 2219 Rocket 3.9 22:58:26 10° N 23:01:38 22° NE 23:01:38 22° NE
ERS-1 Rocket 3.7 23:07:42 49° WNW 23:07:42 49° WNW 23:11:51 10° NNW
SJ 16-02 3.3 23:18:15 10° NNW 23:20:26 28° NNW 23:20:26 28° NNW
H-2A R/B 3.8 23:29:03 23° W 23:29:03 23° W 23:32:24 10° NW
Cosmos 2333 Rocket 3.6 23:24:15 10° N 23:27:41 29° NNE 23:27:41 29° NNE
COSMOS 2428 3.7 23:26:51 10° NNW 23:30:38 42° N 23:30:38 42° N
CZ-4C R/B 3.3 23:28:37 10° NNW 23:35:47 55° NE 23:35:47 55° NE
Cosmos 2297 Rocket 4.1 23:44:24 22° NNE 23:44:24 22° NNE 23:46:18 10° NNE
Lacrosse 5 rocket 4.2 23:37:12 10° NW 23:38:05 16° NW 23:38:05 16° NW
Cosmos 2227 Rocket 3.9 23:47:43 25° NNE 23:47:43 25° NNE 23:50:00 10° NNE
